カタログに戻る

DMSP 5D-2 F13 DEB

運用中PO
NORAD 42322·DEBRIS·🇺🇸 United States

打ち上げ Mar 24, 1995 から Vandenberg Space Force Base

Loading…

次のパス (今後24時間)

TLE

経年Source: Space-Track

元期: Sep 7, 2026, 11:13 UTC

1 42322U 95015JQ  26250.46765669  .00030907  00000-0  33862-2 0  9990
2 42322  98.7579 329.7796 0017581  89.4796 270.8432 14.87578484595054

AllMySatでDMSP 5D-2 F13 DEBをリアルタイム追跡

Download on the App Store